This is the latest recevied weather packets stored in our database for station/object EA1GHG-11. If no packets are shown the sender has not sent any weather packets the latest 10 day(s).
| Time | Temp. | Humidity | Pressure | Rain* | Wind** | Luminosity | Snow |
|---|---|---|---|---|---|---|---|
| 1777606907 | 11.67° C | 100% | 1022.4 hPa | - | - | - | - |
| 1777605406 | 11.11° C | 100% | 1022.4 hPa | - | - | - | - |
| 1777603906 | 11.67° C | 100% | 1022.5 hPa | - | - | - | - |
| 1777602406 | 12.22° C | 100% | 1022.5 hPa | - | - | - | - |
| 1777600906 | 11.67° C | 100% | 1022.6 hPa | - | - | - | - |
| 1777599406 | 11.67° C | 100% | 1022.8 hPa | - | - | - | - |
| 1777597906 | 12.22° C | 100% | 1023.1 hPa | - | - | - | - |
| 1777596406 | 12.78° C | 100% | 1023.1 hPa | - | - | - | - |
| 1777594905 | 12.22° C | 100% | 1023 hPa | - | - | - | - |
| 1777594306 | 12.22° C | 100% | 1023 hPa | - | - | - | - |
| 1777592806 | 12.78° C | 100% | 1023 hPa | - | - | - | - |
| 1777591306 | 12.78° C | 100% | 1023 hPa | - | - | - | - |
| 1777589806 | 11.67° C | 100% | 1023 hPa | - | - | - | - |
| 1777588306 | 13.89° C | 100% | 1022.9 hPa | - | - | - | - |
| 1777586806 | 13.89° C | 100% | 1022.8 hPa | - | - | - | - |
| 1777585305 | 13.33° C | 100% | 1022.8 hPa | - | - | - | - |
| 1777583805 | 13.89° C | 100% | 1022.7 hPa | - | - | - | - |
| 1777582305 | 14.44° C | 100% | 1022.4 hPa | - | - | - | - |
| 1777580804 | 14.44° C | 100% | 1022.3 hPa | - | - | - | - |
| 1777579304 | 14.44° C | 100% | 1021.9 hPa | - | - | - | - |
| 1777577804 | 16.11° C | 100% | 1021.5 hPa | - | - | - | - |
| 1777576304 | 16.67° C | 100% | 1021.2 hPa | - | - | - | - |
| 1777574804 | 17.22° C | 100% | 1021.1 hPa | - | - | - | - |
| 1777573304 | 17.78° C | 100% | 1021.1 hPa | - | - | - | - |
| 1777572706 | 17.78° C | 100% | 1020.9 hPa | - | - | - | - |
* Rain since midnight (hover to see other rain measurements)
** Current wind speed in m/s (hover to see current wind gust speed)